sat.trackr.live / text

‹ back to catalog

STARLINK-34699

NORAD 64921 · 2025-157T

PAYLOAD ACTIVE UNKNOWN

§ Identity

Operator
Country
US
Launch date
2025-07-26
Launch site
AFETR
Launch vehicle
Mass (kg)
RCS (m²)

Purposes: comms

External: N2YO · Heavens-Above · Gunter

§ Orbital elements

Epoch: 2026-05-25T04:00:03.998880Z

Period
93.90 min
Inclination
53.1600°
Eccentricity
0.0001106
Mean motion
15.33553707 rev/d
Perigee alt
464.5 km
Apogee alt
466.0 km
Semi-major
6,843.4 km
B*
-4.2536e-4
RAAN
350.5331°
Arg perigee
84.6416°
Mean anomaly
196.3450°
Rev number
585

§ Raw data

STARLINK-346991 64921U 25157T   26145.16671295 -.00014337  00000+0 -42536-3 0  99992 64921  53.1600 350.5331 0001106  84.6416 196.3450 15.33553707  5851

JSON: /api/v1/satellites/64921 · /tle

For live sub-satellite position, see the globe view (requires WebGL).

§ Visibility from observer

Set your observer location to see the next 7 days of passes ≥ 10°. The values pass through the URL so the page stays shareable.

No JS? Fill the form by hand. The geolocation button needs JavaScript.